Simultaneous Nadir Overpasses (SNOs) Predictions

Prediction of SNOs between AQUA and GOES-15 Satellite Orbit:

Table of predicted SNOs for the next 14.0 days since TLE Epoch: 4/13/2018
Index Date Time (AQUA) AQUA Lat,Lon GOES-15 Lat,Lon Distance(km) Time Diff (sec)
1 04/14/2018 10:38:48 0.19,-135.61 0.09,-135.24 42.80 80
2 04/16/2018 10:26:37 -0.45,-132.66 0.09,-135.29 298.71 80
3 04/16/2018 22:48:01 -0.63,-137.85 -0.09,-135.31 289.13 80
4 04/18/2018 22:35:50 0.01,-134.90 -0.09,-135.35 51.21 80
5 04/20/2018 22:23:39 0.66,-131.95 -0.09,-135.38 390.70 80
6 04/21/2018 10:44:55 0.45,-137.10 0.09,-135.38 196.46 80
7 04/23/2018 10:32:43 -0.14,-134.14 0.10,-135.40 142.37 80
8 04/23/2018 22:54:07 -0.94,-139.34 -0.09,-135.42 445.98 80
9 04/25/2018 10:20:32 -0.80,-131.19 0.10,-135.42 480.88 80
10 04/25/2018 22:41:56 -0.28,-136.39 -0.10,-135.44 107.54 80




NCC Satellite Simultaneous Nadir Overpasses (SNOs) Prediction Service
